N2VUZ-1 Weather Reports


Display with metric or nautical units.
time (UTC)temp
F
wind
direction
speed
MPH
gust
MPH
rain 1hr
in
rain 24hr
in
rain mn
in
humidity
%
barometer
mb
20260901052921 72 191 0.0 0.0 0.00 0.00 0.00 92 1017.3
20260901052421 72 191 0.0 0.0 0.00 0.00 0.00 92 1017.5
20260901051921 72 191 0.0 0.0 0.00 0.00 0.00 92 1017.3
20260901051421 72 191 0.0 0.0 0.00 0.00 0.00 92 1017.4
20260901050921 72 191 0.0 0.0 0.00 0.00 0.00 92 1017.7
20260901050421 72 191 0.0 0.0 0.00 0.00 0.00 92 1017.5
20260901045921 72 191 0.0 0.0 0.00 0.00 0.00 92 1017.6
20260901045421 72 191 0.0 0.0 0.00 0.00 0.00 91 1017.6
20260901044921 72 191 0.0 0.0 0.00 0.00 0.00 91 1017.6
20260901044421 72 191 0.0 0.0 0.00 0.00 0.00 91 1017.8
20260901043921 72 191 0.0 0.0 0.00 0.00 0.00 91 1017.6
20260901043421 72 191 0.0 0.0 0.00 0.00 0.00 91 1017.8
20260901042921 73 191 0.0 0.0 0.00 0.00 0.00 91 1017.8
20260901042421 73 191 0.0 0.0 0.00 0.00 0.00 91 1017.5
20260901041921 73 191 0.0 0.0 0.00 0.00 0.00 91 1017.4
20260901041421 73 191 0.0 0.0 0.00 0.00 0.00 91 1017.5
20260901040921 73 191 0.0 0.0 0.00 0.00 0.00 91 1017.3
20260901040421 73 191 0.0 0.0 0.00 0.00 0.00 91 1017.3
20260901035921 73 191 0.0 0.0 0.00 0.00 0.00 91 1017.5
20260901035421 73 191 0.0 0.0 0.00 0.00 0.00 91 1017.5
20260901034921 73 191 0.0 0.0 0.00 0.00 0.00 91 1017.5
20260901034421 73 191 0.0 0.0 0.00 0.00 0.00 91 1017.6
20260901033921 73 191 0.0 0.0 0.00 0.00 0.00 91 1017.4
20260901033421 73 191 0.0 0.0 0.00 0.00 0.00 91 1017.4
20260901032921 73 191 0.0 1.0 0.00 0.00 0.00 91 1017.4
20260901032421 73 191 0.0 0.0 0.00 0.00 0.00 91 1017.3
20260901031921 73 191 0.0 0.0 0.00 0.00 0.00 91 1017.2
20260901031421 73 191 0.0 0.0 0.00 0.00 0.00 91 1017.3
20260901030921 73 192 0.0 0.0 0.00 0.00 0.00 91 1017.2
20260901030421 73 191 0.0 0.0 0.00 0.00 0.00 91 1017.1
20260901025921 73 191 0.0 0.0 0.00 0.00 0.00 90 1017.1
20260901025421 73 191 0.0 0.0 0.00 0.00 0.00 90 1017.2
20260901024921 73 191 0.0 0.0 0.00 0.00 0.00 90 1017.1
20260901024421 73 191 0.0 0.0 0.00 0.00 0.00 90 1017.1
20260901023921 73 191 0.0 0.0 0.00 0.00 0.00 90 1017.3
20260901023421 73 191 0.0 0.0 0.00 0.00 0.00 90 1017.3
20260901022921 73 191 0.0 0.0 0.00 0.00 0.00 90 1017.4
20260901022421 73 191 0.0 0.0 0.00 0.00 0.00 90 1017.3
20260901021921 73 191 0.0 0.0 0.00 0.00 0.00 90 1017.3
20260901021421 73 191 0.0 0.0 0.00 0.00 0.00 90 1017.5
20260901020921 73 191 0.0 0.0 0.00 0.00 0.00 90 1017.5
20260901020421 73 149 0.0 0.0 0.00 0.00 0.00 90 1017.7
20260901015921 73 192 0.0 0.0 0.00 0.00 0.00 90 1017.5
20260901015421 73 202 1.0 1.0 0.00 0.00 0.00 90 1017.4
20260901014921 73 202 1.0 1.0 0.00 0.00 0.00 90 1017.5
20260901014421 73 197 1.0 1.0 0.00 0.00 0.00 90 1017.7
20260901013921 73 197 0.0 1.0 0.00 0.00 0.00 89 1017.5
20260901013421 73 195 1.0 1.0 0.00 0.00 0.00 90 1017.5
20260901012921 73 193 0.0 1.0 0.00 0.00 0.00 90 1017.6
20260901012421 73 193 0.0 0.0 0.00 0.00 0.00 90 1017.7
20260901011921 73 193 0.0 1.0 0.00 0.00 0.00 90 1017.6
20260901011421 73 191 0.0 1.0 0.00 0.00 0.00 90 1017.5
20260901010921 73 191 0.0 0.0 0.00 0.00 0.00 90 1017.6
20260901010421 73 191 0.0 0.0 0.00 0.00 0.00 90 1017.6
20260901005921 73 190 0.0 0.0 0.00 0.00 0.00 90 1017.7
20260901005421 73 190 0.0 0.0 0.00 0.00 0.00 90 1017.5
20260901004921 73 190 0.0 0.0 0.00 0.00 0.00 90 1017.5
20260901004421 73 190 0.0 0.0 0.00 0.00 0.00 90 1017.4
20260901003921 73 184 0.0 1.0 0.00 0.00 0.00 90 1017.6
20260901003421 73 184 0.0 0.0 0.00 0.00 0.00 90 1017.2
20260901002921 73 184 1.0 1.0 0.00 0.00 0.00 90 1017.4
20260901002421 73 206 1.0 1.0 0.00 0.00 0.00 90 1017.5
20260901001921 73 173 1.0 1.0 0.00 0.00 0.00 90 1017.3
20260901001421 73 173 0.0 0.0 0.00 0.00 0.00 90 1017.3
20260901000921 73 162 1.0 1.0 0.00 0.00 0.00 90 1017.2
20260901000421 74 159 0.0 0.0 0.00 0.00 0.00 90 1017.3
20260831235921 74 159 0.0 0.0 0.00 0.00 0.00 89 1017.2
20260831235421 74 161 0.0 0.0 0.00 0.00 0.00 89 1017.3
20260831234921 74 156 0.0 0.0 0.00 0.00 0.00 89 1017.5
20260831234421 74 156 0.0 1.0 0.00 0.00 0.00 89 1017.7
20260831233921 74 157 0.0 0.0 0.00 0.00 0.00 89 1017.7
20260831233421 74 157 0.0 0.0 0.00 0.00 0.00 88 1017.5
20260831232921 75 158 0.0 0.0 0.00 0.00 0.00 87 1017.5
20260831232421 75 158 0.0 0.0 0.00 0.00 0.00 87 1017.7
20260831231921 75 140 0.0 0.0 0.00 0.00 0.00 86 1017.8
20260831231421 75 140 0.0 0.0 0.00 0.00 0.00 85 1017.6
20260831230921 75 140 1.0 1.0 0.00 0.00 0.00 84 1017.8
20260831230421 76 141 0.0 0.0 0.00 0.00 0.00 84 1017.8
20260831225921 76 141 0.0 0.0 0.00 0.00 0.00 84 1017.7
20260831225421 75 141 0.0 0.0 0.00 0.00 0.00 84 1017.7
20260831224921 76 141 0.0 0.0 0.00 0.00 0.00 84 1017.6
20260831224421 76 142 0.0 0.0 0.00 0.00 0.00 83 1017.9
20260831223921 76 142 0.0 1.0 0.00 0.00 0.00 83 1017.9
20260831223421 76 129 0.0 1.0 0.00 0.00 0.00 83 1018.0
20260831222921 76 135 0.0 1.0 0.00 0.00 0.00 83 1017.9
20260831222421 76 129 2.0 2.0 0.00 0.00 0.00 83 1017.6
20260831221921 76 198 1.0 1.0 0.00 0.00 0.00 83 1018.1
20260831221421 76 209 1.0 2.0 0.00 0.00 0.00 83 1018.3
20260831220921 76 203 2.0 2.0 0.00 0.00 0.00 83 1018.5
20260831220421 76 191 1.0 2.0 0.00 0.00 0.00 83 1018.2
20260831215921 76 205 3.0 4.0 0.00 0.00 0.00 83 1018.1
20260831215421 76 143 1.0 3.0 0.00 0.00 0.00 83 1018.3
20260831214921 76 223 2.0 2.0 0.00 0.00 0.00 83 1018.8
20260831214421 77 197 1.0 1.0 0.00 0.00 0.00 83 1018.5
20260831213921 77 208 1.0 1.0 0.00 0.00 0.00 82 1018.4
20260831213421 78 237 2.0 2.0 0.00 0.00 0.00 80 1018.3
20260831212921 79 190 2.0 3.0 0.00 0.00 0.00 79 1017.9
20260831212421 81 183 1.0 2.0 0.00 0.00 0.00 80 1017.7
20260831211921 82 118 0.0 1.0 0.00 0.00 0.00 79 1017.9
20260831211421 82 95 2.0 2.0 0.00 0.00 0.00 79 1017.8
20260831210921 83 64 3.0 3.0 0.00 0.00 0.00 78 1017.6
20260831210421 83 225 2.0 3.0 0.00 0.00 0.00 78 1017.7
20260831205921 83 90 3.0 4.0 0.00 0.00 0.00 77 1017.6
20260831205421 84 4 2.0 3.0 0.00 0.00 0.00 77 1017.5
20260831204921 84 115 1.0 1.0 0.00 0.00 0.00 77 1017.3
20260831204421 84 172 3.0 3.0 0.00 0.00 0.00 76 1017.4
20260831203921 84 150 2.0 2.0 0.00 0.00 0.00 76 1017.4
20260831203421 84 75 1.0 1.0 0.00 0.00 0.00 77 1017.3
20260831202921 85 206 2.0 3.0 0.00 0.00 0.00 75 1017.0
20260831202421 85 143 1.0 1.0 0.00 0.00 0.00 75 1017.0
20260831201921 86 72 5.0 6.0 0.00 0.00 0.00 74 1017.0
20260831201421 85 83 1.0 1.0 0.00 0.00 0.00 76 1017.0
20260831200921 84 126 0.0 1.0 0.00 0.00 0.00 75 1017.0
20260831200421 85 151 3.0 3.0 0.00 0.00 0.00 75 1017.3
20260831195921 85 151 1.0 1.0 0.00 0.00 0.00 75 1017.1
20260831195421 85 98 0.0 0.0 0.00 0.00 0.00 74 1017.1
20260831194921 86 104 0.0 1.0 0.00 0.00 0.00 73 1017.1
20260831194421 86 111 2.0 3.0 0.00 0.00 0.00 73 1017.1
20260831193921 86 264 1.0 2.0 0.00 0.00 0.00 72 1017.2
20260831193421 87 176 1.0 1.0 0.00 0.00 0.00 70 1017.2
20260831192921 87 122 2.0 2.0 0.00 0.00 0.00 71 1017.3
20260831192421 87 152 0.0 1.0 0.00 0.00 0.00 69 1017.5
20260831191921 87 147 0.0 1.0 0.00 0.00 0.00 70 1017.4
20260831191421 86 51 2.0 3.0 0.00 0.00 0.00 71 1017.7
20260831190921 86 81 1.0 2.0 0.00 0.00 0.00 73 1017.7
20260831190421 85 178 1.0 1.0 0.00 0.00 0.00 72 1017.5
20260831185921 86 139 0.0 0.0 0.00 0.00 0.00 73 1017.7
20260831185421 86 71 0.0 0.0 0.00 0.00 0.00 74 1017.5
20260831184921 86 99 0.0 0.0 0.00 0.00 0.00 66 1017.7
20260831184421 86 178 0.0 1.0 0.00 0.00 0.00 69 1017.5
20260831183921 87 204 0.0 1.0 0.00 0.00 0.00 68 1017.5
20260831183421 87 204 1.0 1.0 0.00 0.00 0.00 69 1017.5
20260831182921 87 204 0.0 0.0 0.00 0.00 0.00 65 1017.5
20260831182421 87 204 0.0 1.0 0.00 0.00 0.00 65 1017.6
20260831181921 87 204 1.0 1.0 0.00 0.00 0.00 66 1017.6
20260831181421 88 205 0.0 1.0 0.00 0.00 0.00 69 1017.6
20260831180921 88 205 0.0 1.0 0.00 0.00 0.00 66 1017.8
20260831180421 88 117 0.0 0.0 0.00 0.00 0.00 63 1017.7
20260831175921 88 142 1.0 1.0 0.00 0.00 0.00 64 1017.8
20260831175421 89 131 1.0 2.0 0.00 0.00 0.00 64 1017.8
20260831174921 87 90 0.0 0.0 0.00 0.00 0.00 66 1017.8
20260831174421 87 90 1.0 2.0 0.00 0.00 0.00 67 1017.8
20260831173921 86 90 0.0 1.0 0.00 0.00 0.00 67 1017.8
20260831173421 87 98 1.0 1.0 0.00 0.00 0.00 69 1018.0
20260831172921 86 77 0.0 0.0 0.00 0.00 0.00 70 1018.0
20260831172421 87 70 2.0 2.0 0.00 0.00 0.00 68 1017.9
20260831171921 87 130 1.0 2.0 0.00 0.00 0.00 68 1017.8
20260831171421 86 62 2.0 3.0 0.00 0.00 0.00 67 1017.9
20260831170921 87 107 1.0 1.0 0.00 0.00 0.00 66 1018.0
20260831170421 87 157 1.0 1.0 0.00 0.00 0.00 66 1018.1
20260831165921 87 158 1.0 1.0 0.00 0.00 0.00 65 1018.2
20260831165421 87 185 2.0 2.0 0.00 0.00 0.00 66 1017.8
20260831164921 86 123 0.0 1.0 0.00 0.00 0.00 69 1018.0
20260831164421 87 213 0.0 1.0 0.00 0.00 0.00 67 1018.0
20260831163921 87 207 2.0 2.0 0.00 0.00 0.00 66 1018.1
20260831163421 87 195 1.0 1.0 0.00 0.00 0.00 68 1018.2
20260831162921 87 187 2.0 2.0 0.00 0.00 0.00 69 1018.2
20260831162421 85 173 1.0 1.0 0.00 0.00 0.00 71 1018.4
20260831161921 85 89 1.0 1.0 0.00 0.00 0.00 69 1018.3
20260831161421 86 132 1.0 1.0 0.00 0.00 0.00 69 1018.6
20260831160921 85 179 0.0 0.0 0.00 0.00 0.00 71 1018.4
20260831160421 84 127 1.0 2.0 0.00 0.00 0.00 73 1018.5
20260831155921 85 148 2.0 3.0 0.00 0.00 0.00 71 1018.5
20260831155421 84 79 3.0 3.0 0.00 0.00 0.00 72 1018.5
20260831154921 85 213 1.0 2.0 0.00 0.00 0.00 72 1018.5
20260831154421 84 95 2.0 2.0 0.00 0.00 0.00 74 1018.4
20260831153921 85 175 1.0 1.0 0.00 0.00 0.00 73 1018.6
20260831153421 83 134 1.0 2.0 0.00 0.00 0.00 75 1018.6
20260831152921 83 216 2.0 2.0 0.00 0.00 0.00 75 1018.4
20260831152421 83 210 0.0 1.0 0.00 0.00 0.00 77 1018.6
20260831151921 85 125 2.0 2.0 0.00 0.00 0.00 75 1018.3
20260831151421 83 168 0.0 1.0 0.00 0.00 0.00 78 1018.7
20260831150921 84 78 1.0 2.0 0.00 0.00 0.00 75 1018.5
20260831150421 84 170 0.0 1.0 0.00 0.00 0.00 75 1018.6
20260831145921 83 161 1.0 1.0 0.00 0.00 0.00 78 1018.7
20260831145421 81 151 0.0 0.0 0.00 0.00 0.00 80 1018.8
20260831144921 81 118 1.0 1.0 0.00 0.00 0.00 81 1018.8
20260831144421 81 78 1.0 1.0 0.00 0.00 0.00 81 1018.6
20260831143921 81 143 2.0 2.0 0.00 0.00 0.00 81 1018.4
20260831143421 82 139 5.0 7.0 0.00 0.00 0.00 79 1018.6
20260831142921 82 112 1.0 2.0 0.00 0.00 0.00 79 1018.6
20260831142421 82 156 0.0 1.0 0.00 0.00 0.00 79 1018.6
20260831141921 81 138 1.0 1.0 0.00 0.00 0.00 82 1018.4
20260831141421 81 126 4.0 6.0 0.00 0.00 0.00 81 1018.6
20260831140921 81 7 3.0 4.0 0.00 0.00 0.00 81 1018.6
20260831140421 81 158 1.0 1.0 0.00 0.00 0.00 82 1018.6
20260831135921 80 63 1.0 1.0 0.00 0.00 0.00 83 1018.8
20260831135421 80 55 2.0 2.0 0.00 0.00 0.00 83 1018.6
20260831134921 80 95 1.0 2.0 0.00 0.00 0.00 83 1018.7
20260831134421 81 208 0.0 1.0 0.00 0.00 0.00 82 1018.5
20260831133921 81 176 1.0 1.0 0.00 0.00 0.00 82 1018.7
20260831133421 81 103 1.0 2.0 0.00 0.00 0.00 82 1018.7
20260831132921 79 128 1.0 1.0 0.00 0.00 0.00 84 1018.6
20260831132421 78 158 0.0 0.0 0.00 0.00 0.00 87 1019.0
20260831131921 77 161 0.0 0.0 0.00 0.00 0.00 89 1018.9
20260831131421 77 119 1.0 1.0 0.00 0.00 0.00 90 1019.0
20260831130921 76 112 0.0 0.0 0.00 0.00 0.00 92 1018.6
20260831130421 75 153 0.0 1.0 0.00 0.00 0.00 93 1018.9
20260831125921 75 127 0.0 0.0 0.00 0.00 0.00 93 1018.8
20260831125421 75 141 0.0 0.0 0.00 0.00 0.00 93 1018.7
20260831124921 74 129 0.0 1.0 0.00 0.00 0.00 93 1018.8
20260831124421 74 165 0.0 1.0 0.00 0.00 0.00 93 1018.7
20260831123921 73 159 1.0 1.0 0.00 0.00 0.00 93 1019.0
20260831123421 73 155 0.0 1.0 0.00 0.00 0.00 93 1018.8
20260831122921 73 104 0.0 0.0 0.00 0.00 0.00 94 1018.9
20260831122421 73 105 1.0 1.0 0.00 0.00 0.00 93 1018.9
20260831121921 73 119 0.0 0.0 0.00 0.00 0.00 94 1018.8
20260831121421 73 117 1.0 1.0 0.00 0.00 0.00 93 1018.5
20260831120921 73 110 1.0 1.0 0.00 0.00 0.00 94 1018.5
20260831120421 73 198 0.0 0.0 0.00 0.00 0.00 94 1018.4
20260831115921 72 197 0.0 0.0 0.00 0.00 0.00 94 1018.2
20260831115421 72 197 0.0 0.0 0.00 0.00 0.00 94 1018.3
20260831114921 72 197 0.0 0.0 0.00 0.00 0.00 94 1018.5
20260831114421 72 197 0.0 0.0 0.00 0.00 0.00 94 1018.4
20260831113921 71 197 0.0 0.0 0.00 0.00 0.00 94 1018.3
20260831113421 71 197 0.0 0.0 0.00 0.00 0.00 94 1018.5
20260831112921 71 197 0.0 0.0 0.00 0.00 0.00 94 1018.5
20260831112421 71 197 0.0 0.0 0.00 0.00 0.00 94 1018.4
20260831111921 71 197 0.0 0.0 0.00 0.00 0.00 94 1018.4
20260831111421 71 197 0.0 0.0 0.00 0.00 0.00 94 1018.4
20260831110921 71 197 0.0 0.0 0.00 0.00 0.00 94 1018.1
20260831110421 71 197 0.0 0.0 0.00 0.00 0.00 94 1018.0
20260831105921 71 197 0.0 0.0 0.00 0.00 0.00 94 1018.1
20260831105421 71 197 0.0 0.0 0.00 0.00 0.00 94 1018.2
20260831104921 71 197 0.0 0.0 0.00 0.00 0.00 94 1018.1
20260831104421 70 197 0.0 0.0 0.00 0.00 0.00 94 1018.0
20260831103921 70 197 0.0 0.0 0.00 0.00 0.00 94 1018.0
20260831103421 71 197 0.0 0.0 0.00 0.00 0.00 94 1017.9
20260831102921 70 197 0.0 0.0 0.00 0.00 0.00 93 1017.9
20260831102421 70 197 0.0 0.0 0.00 0.00 0.00 94 1017.8
20260831101921 70 197 0.0 0.0 0.00 0.00 0.00 93 1017.9
20260831101421 70 197 0.0 0.0 0.00 0.00 0.00 93 1017.7
20260831100921 70 197 0.0 0.0 0.00 0.00 0.00 93 1017.7
20260831100421 70 197 0.0 0.0 0.00 0.00 0.00 93 1017.7
20260831095921 70 197 0.0 0.0 0.00 0.00 0.00 93 1017.7
20260831095421 70 197 0.0 0.0 0.00 0.00 0.00 93 1017.7
20260831094921 70 197 0.0 0.0 0.00 0.00 0.00 93 1017.3
20260831094421 70 197 0.0 0.0 0.00 0.00 0.00 93 1017.6
20260831093921 70 197 0.0 0.0 0.00 0.00 0.00 93 1017.8
20260831093421 70 197 0.0 0.0 0.00 0.00 0.00 93 1017.8
20260831092921 71 197 0.0 0.0 0.00 0.00 0.00 93 1017.4
20260831092421 71 197 0.0 0.0 0.00 0.00 0.00 93 1017.6
20260831091921 71 197 0.0 0.0 0.00 0.00 0.00 93 1017.6
20260831091421 71 197 0.0 0.0 0.00 0.00 0.00 93 1017.7
20260831090921 71 197 0.0 0.0 0.00 0.00 0.00 93 1017.6
20260831090421 71 197 0.0 0.0 0.00 0.00 0.00 93 1017.7
20260831085921 71 197 0.0 0.0 0.00 0.00 0.00 93 1017.5
20260831085421 71 197 0.0 0.0 0.00 0.00 0.00 93 1017.4
20260831084921 71 197 0.0 0.0 0.00 0.00 0.00 93 1017.5
20260831084421 71 197 0.0 0.0 0.00 0.00 0.00 93 1017.5
20260831083921 71 197 0.0 0.0 0.00 0.00 0.00 93 1017.4
20260831083421 71 197 0.0 0.0 0.00 0.00 0.00 93 1017.5
20260831082921 71 197 0.0 0.0 0.00 0.00 0.00 93 1017.3
20260831082421 71 197 0.0 0.0 0.00 0.00 0.00 93 1017.5
20260831081921 71 197 0.0 0.0 0.00 0.00 0.00 93 1017.5
20260831081421 71 197 0.0 0.0 0.00 0.00 0.00 93 1017.6
20260831080921 72 197 0.0 0.0 0.00 0.00 0.00 93 1017.6
20260831080421 72 197 0.0 0.0 0.00 0.00 0.00 93 1017.7
20260831075921 71 197 0.0 0.0 0.00 0.00 0.00 93 1017.6
20260831075421 72 197 0.0 0.0 0.00 0.00 0.00 93 1017.6
20260831074921 72 197 0.0 0.0 0.00 0.00 0.00 93 1017.6
20260831074421 72 197 0.0 1.0 0.00 0.00 0.00 93 1017.8
20260831073921 72 197 1.0 1.0 0.00 0.00 0.00 93 1017.6
20260831073421 72 197 0.0 0.0 0.00 0.00 0.00 93 1017.7
20260831072921 72 197 0.0 0.0 0.00 0.00 0.00 93 1017.6
20260831072421 72 197 0.0 0.0 0.00 0.00 0.00 93 1017.7
20260831071921 72 197 0.0 0.0 0.00 0.00 0.00 93 1017.6
20260831071421 72 197 0.0 0.0 0.00 0.00 0.00 92 1017.6
20260831070921 72 197 0.0 0.0 0.00 0.00 0.00 92 1017.8
20260831070421 72 197 0.0 0.0 0.00 0.00 0.00 92 1017.8
20260831065921 72 197 0.0 0.0 0.00 0.00 0.00 92 1017.9
20260831065421 73 197 0.0 0.0 0.00 0.00 0.00 92 1018.0
20260831064921 72 197 0.0 0.0 0.00 0.00 0.00 92 1017.8
20260831064421 72 197 0.0 0.0 0.00 0.00 0.00 92 1017.9
20260831063921 72 197 0.0 0.0 0.00 0.00 0.00 92 1017.9
20260831063421 72 197 0.0 0.0 0.00 0.00 0.00 92 1017.7
20260831062921 72 197 0.0 0.0 0.00 0.00 0.00 92 1017.8
20260831062421 73 197 0.0 0.0 0.00 0.00 0.00 92 1018.0
20260831061921 73 197 0.0 0.0 0.00 0.00 0.00 92 1018.0
20260831061421 72 197 0.0 0.0 0.00 0.00 0.00 92 1017.9
20260831060921 73 197 0.0 0.0 0.00 0.00 0.00 92 1018.2
20260831060421 73 197 0.0 0.0 0.00 0.00 0.00 92 1018.0
20260831055921 73 197 0.0 0.0 0.00 0.00 0.00 91 1018.0
20260831055421 73 197 0.0 0.0 0.00 0.00 0.00 91 1018.0
20260831054921 73 197 0.0 0.0 0.00 0.00 0.00 91 1018.1
20260831054421 73 197 0.0 0.0 0.00 0.00 0.00 91 1018.0
20260831053921 73 197 0.0 0.0 0.00 0.00 0.00 91 1018.0
20260831053421 73 197 0.0 0.0 0.00 0.00 0.00 91 1018.1